Location: Brabourne
(51.1333°N, 1.0000°E)
Time: 08:08:12
(UTC+00:00)

Cosmos 2369 Rocket - Pass Details

Date: 20 June 2021
Orbit: 827 x 854 km, 71.0° (Epoch: 31 July)

Event Time Altitude Azimuth Distance (km) Brightness Sun altitude
Rises 00:26:09 0° 329° (NNW) 3,435 6.2 -15.2°
Reaches altitude 10° 00:28:37 10° 328° (NNW) 2,495 5.4 -15.1°
Maximum altitude 00:34:22 79° 243° (WSW) 874 2.2 -15.0°
Enters shadow 00:38:49 17° 158° (SSE) 2,017 3.7 -14.9°
